sat.trackr.live / text

‹ back to catalog

SHIJIAN-29A (SJ-29A)

NORAD 67302 · 2025-315A

PAYLOAD ACTIVE UNKNOWN

§ Identity

Operator
Country
PRC
Launch date
2025-12-30
Launch site
WSC
Launch vehicle
Mass (kg)
RCS (m²)

Purposes: comms

External: N2YO · Heavens-Above · Gunter

§ Orbital elements

Epoch: 2026-09-19T20:39:48.928608Z

Period
1,436.13 min
Inclination
3.6313°
Eccentricity
0.0006188
Mean motion
1.00269809 rev/d
Perigee alt
35,761.1 km
Apogee alt
35,813.2 km
Semi-major
42,165.3 km
B*
0.0000e+0
RAAN
92.8181°
Arg perigee
73.0407°
Mean anomaly
216.3358°
Rev number
256

§ Raw data

SHIJIAN-29A (SJ-29A)1 67302U 25315A   26262.86098297 -.00000074  00000+0  00000+0 0  99912 67302   3.6313  92.8181 0006188  73.0407 216.3358  1.00269809  2565

JSON: /api/v1/satellites/67302 · /tle

For live sub-satellite position, see the globe view (requires WebGL).

§ Visibility from observer

Set your observer location to see the next 7 days of passes ≥ 10°. The values pass through the URL so the page stays shareable.

No JS? Fill the form by hand. The geolocation button needs JavaScript.